Weather History for Kalispell, MT

Change the Weather History Date:

Monday, December 24, 2012

  Actual Average Record
Temperature  
Mean Temperature 24 °F 21 °F  
Max Temperature 31 °F 29 °F 50 °F (1899)
Min Temperature 17 °F 14 °F -30 °F (1983)
Degree Days  
Heating Degree Days 41 44  
Month to date heating degree days 832 1006  
Since 1 July heating degree days 2812 3210  
Cooling Degree Days 0 0  
Month to date cooling degree days 0 0  
Year to date cooling degree days 192 147  
Moisture  
Dew Point 12 °F    
Average Humidity 73    
Maximum Humidity 85    
Minimum Humidity 61    
Precipitation  
Precipitation 0.01 in 0.06 in 0.62 in (1902)
Month to date precipitation 1.10 1.20  
Year to date precipitation 20.24 16.63  
Snow  
Snow T in - - ()
Month to date snowfall 4.1  
Year to date snowfall 31.5  
Since 1 July snowfall 6.4  
Snow Depth T in    
Sea Level Pressure  
Sea Level Pressure 29.99 in    
Wind  
Wind Speed 17 mph (NNE)    
Max Wind Speed 26 mph    
Max Gust Speed 32 mph    
Visibility 7 miles    
Events Fog , Snow    
T = Trace of Precipitation, MM = Missing Value Source: NWS Daily Summary

Daily Weather History Graph

Daily Weather History Graph

Search for Another Location

Airport:

Trip Planner

Search our weather history database for the weather conditions in past years. The results will help you decide how hot, cold, wet, or windy it might be!

Date:

Astronomy

Dec. 24, 2012 Rise Set
Actual Time 8:26 AM MST 4:47 PM MST
Civil Twilight 7:50 AM MST 5:23 PM MST
Nautical Twilight 7:10 AM MST 6:03 PM MST
Astronomical Twilight 6:32 AM MST 6:41 PM MST
Moon 2:22 PM MST 5:02 AM MST
Length of Visible Light 9h 33m
Length of Day
8h 20m
Waxing Gibbous, 89% of the Moon is Illuminated
Dec 24
Waxing Gibbous
Dec 28
Full
Jan 4
Last Quarter
Jan 11
New
Jan 18
First Quarter

Hourly Weather History & Observations

Time (MST) Temp. Windchill Dew Point Humidity Pressure Visibility Wind Dir Wind Speed Gust Speed Precip Events Conditions
12:55 AM 28.0 °F 22.8 °F 24.1 °F 85% 29.74 in 10.0 mi ENE 4.6 mph - N/A   Overcast
1:55 AM 28.9 °F 20.4 °F 19.9 °F 69% 29.76 in 10.0 mi NE 9.2 mph - N/A   Overcast
2:55 AM 27.0 °F 16.7 °F 21.0 °F 78% 29.78 in 9.0 mi NNE 11.5 mph - 0.00 in   Overcast
3:55 AM 25.0 °F 12.6 °F 19.0 °F 78% 29.81 in 10.0 mi NNE 15.0 mph - N/A   Overcast
4:55 AM 24.1 °F 13.1 °F 18.0 °F 77% 29.82 in 10.0 mi NNE 11.5 mph - N/A   Overcast
5:55 AM 24.1 °F 11.0 °F 17.1 °F 75% 29.84 in 4.0 mi NNE 16.1 mph - 0.00 in Snow Light Snow
6:55 AM 21.0 °F 6.6 °F 15.1 °F 78% 29.88 in 3.0 mi NNE 17.3 mph - 0.00 in Snow Light Snow
7:51 AM 19.4 °F 3.6 °F 12.2 °F 74% 29.81 in 2.0 mi NNE 19.6 mph 27.6 mph 0.00 in Snow Light Snow
7:55 AM 19.0 °F 3.6 °F 12.9 °F 77% 29.91 in 2.0 mi NNE 18.4 mph 27.6 mph 0.00 in Snow Light Snow
8:06 AM 19.4 °F 2.5 °F 12.2 °F 74% 29.82 in 1.0 mi NNE 23.0 mph - 0.00 in Snow Light Snow
8:28 AM 19.4 °F 3.6 °F 14.0 °F 80% 29.82 in 1.0 mi NNE 19.6 mph - 0.00 in Snow Light Snow
8:33 AM 17.6 °F 0.5 °F 14.0 °F 86% 29.83 in 0.5 mi NNE 21.9 mph 27.6 mph 0.01 in Fog , Snow Light Snow
8:55 AM 18.0 °F 2.2 °F 12.9 °F 81% 29.95 in 2.5 mi NNE 18.4 mph - 0.01 in Snow Light Snow
9:21 AM 17.6 °F 0.5 °F 12.2 °F 79% 29.86 in 1.2 mi NNE 21.9 mph 28.8 mph 0.00 in Snow Light Snow
9:39 AM 17.6 °F -0.3 °F 12.2 °F 79% 29.87 in 1.5 mi NNE 24.2 mph - 0.00 in Snow Light Snow
9:48 AM 17.6 °F 0.5 °F 12.2 °F 79% 29.88 in 3.0 mi NNE 21.9 mph 29.9 mph 0.00 in Snow Light Snow
9:55 AM 18.0 °F 2.2 °F 12.0 °F 78% 29.99 in 4.0 mi NNE 18.4 mph 27.6 mph 0.00 in Snow Light Snow
10:55 AM 18.0 °F 3.1 °F 9.0 °F 68% 30.04 in 10.0 mi NNE 16.1 mph 28.8 mph 0.00 in   Overcast
11:55 AM 18.0 °F 0.6 °F 8.1 °F 65% 30.05 in 9.0 mi NNE 23.0 mph 29.9 mph 0.00 in Snow Light Snow
12:55 PM 19.0 °F 1.6 °F 8.1 °F 62% 30.06 in 10.0 mi NNE 24.2 mph - 0.00 in   Overcast
1:33 PM 19.4 °F 2.8 °F 8.6 °F 63% 29.96 in 10.0 mi NNE 21.9 mph 28.8 mph N/A   Overcast
1:55 PM 19.0 °F 2.4 °F 8.1 °F 62% 30.09 in 10.0 mi NNE 21.9 mph 28.8 mph N/A   Overcast
2:55 PM 18.0 °F 1.3 °F 8.1 °F 65% 30.12 in 10.0 mi NNE 20.7 mph 28.8 mph N/A   Overcast
3:55 PM 19.0 °F 2.7 °F 8.1 °F 62% 30.14 in 10.0 mi NNE 20.7 mph 27.6 mph N/A   Mostly Cloudy
4:55 PM 17.1 °F 0.6 °F 7.0 °F 65% 30.17 in 10.0 mi NNE 19.6 mph 25.3 mph N/A   Scattered Clouds
5:55 PM 17.1 °F -0.3 °F 7.0 °F 65% 30.20 in 10.0 mi North 21.9 mph - N/A   Overcast
6:55 PM 18.0 °F 3.1 °F 7.0 °F 62% 30.24 in 10.0 mi NNE 16.1 mph - N/A   Overcast
7:55 PM 18.0 °F 2.6 °F 7.0 °F 62% 30.25 in 10.0 mi North 17.3 mph - N/A   Overcast
8:55 PM 17.1 °F 2.0 °F 7.0 °F 65% 30.26 in 10.0 mi NNE 16.1 mph - N/A   Overcast
9:55 PM 17.1 °F 4.3 °F 7.0 °F 65% 30.28 in 10.0 mi NNE 11.5 mph - N/A   Overcast
10:55 PM 17.1 °F 1.5 °F 8.1 °F 68% 30.28 in 10.0 mi NNE 17.3 mph 23.0 mph N/A   Overcast
11:55 PM 17.1 °F 2.5 °F 8.1 °F 68% 30.29 in 10.0 mi NNE 15.0 mph 21.9 mph N/A   Overcast